When you browse on this site, cookies collect data to enhance your experience and personalize the content and advertising you see.
Visit our Privacy Policy to learn more. By continuing to use the site, you agree to this use of cookies and data.

Météo par heure à Tenchin

Ce jour, 14 Juillet, Mardi

Heure Température Précipitation Vent Pression Humidité
00:00 +11°C° 0 mm 1 m/s 742 mmHg 84%
01:00 +11°C° 0 mm 1 m/s 742 mmHg 85%
02:00 +11°C° 0 mm 1 m/s 741 mmHg 86%
03:00 +10°C° 0 mm 1 m/s 741 mmHg 86%
04:00 +10°C° 0 mm 1 m/s 741 mmHg 87%
05:00 +12°C° 0 mm 1 m/s 741 mmHg 81%
06:00 +14°C° 0 mm 1 m/s 741 mmHg 74%
07:00 +16°C° 0 mm 1 m/s 741 mmHg 68%
08:00 +18°C° 0 mm 1 m/s 741 mmHg 64%
09:00 +20°C° 0 mm 1 m/s 740 mmHg 60%
10:00 +21°C° 0 mm 2 m/s 740 mmHg 57%
11:00 +21°C° 0 mm 2 m/s 740 mmHg 55%
12:00 +23°C° 0 mm 2 m/s 740 mmHg 53%
13:00 +23°C° 0 mm 2 m/s 740 mmHg 51%
14:00 +23°C° 0 mm 2 m/s 739 mmHg 52%
15:00 +23°C° 0 mm 2 m/s 739 mmHg 53%
16:00 +23°C° 0 mm 2 m/s 738 mmHg 54%
17:00 +22°C° 0 mm 1 m/s 738 mmHg 60%
18:00 +20°C° 0 mm 1 m/s 738 mmHg 67%
19:00 +19°C° 0 mm 1 m/s 738 mmHg 74%
20:00 +18°C° 0 mm 1 m/s 738 mmHg 77%
21:00 +15°C° 0 mm 1 m/s 738 mmHg 79%
22:00 +14°C° 0 mm 1 m/s 738 mmHg 82%
23:00 +14°C° 0 mm 1 m/s 738 mmHg 82%

Demain, 15 Juillet, Mercredi

Heure Température Précipitation Vent Pression Humidité
00:00 +14°C° 0 mm 1 m/s 738 mmHg 83%
01:00 +13°C° 0 mm 1 m/s 738 mmHg 84%
02:00 +13°C° 0 mm 1 m/s 738 mmHg 85%
03:00 +13°C° 0 mm 1 m/s 737 mmHg 86%
04:00 +12°C° 0 mm 1 m/s 737 mmHg 87%
05:00 +14°C° 0 mm 1 m/s 737 mmHg 81%
06:00 +16°C° 0 mm 1 m/s 738 mmHg 76%
07:00 +19°C° 0 mm 1 m/s 738 mmHg 70%
08:00 +19°C° 0 mm 2 m/s 738 mmHg 65%
09:00 +21°C° 0 mm 3 m/s 738 mmHg 60%
10:00 +22°C° 0 mm 3 m/s 738 mmHg 55%
11:00 +24°C° 0 mm 3 m/s 737 mmHg 54%
12:00 +23°C° 0 mm 4 m/s 737 mmHg 53%
13:00 +25°C° 0 mm 4 m/s 737 mmHg 52%
14:00 +25°C° 0 mm 3 m/s 737 mmHg 52%
15:00 +25°C° 0 mm 3 m/s 737 mmHg 53%
16:00 +25°C° 0 mm 3 m/s 737 mmHg 54%
17:00 +23°C° 0 mm 2 m/s 737 mmHg 61%
18:00 +21°C° 0 mm 2 m/s 737 mmHg 68%
19:00 +21°C° 0 mm 1 m/s 736 mmHg 74%
20:00 +19°C° 0 mm 1 m/s 737 mmHg 75%
21:00 +18°C° 0 mm 1 m/s 737 mmHg 77%
22:00 +16°C° 0 mm 1 m/s 737 mmHg 78%
23:00 +16°C° 0.1 mm 1 m/s 737 mmHg 78%

Après-demain, 16 Juillet, Jeudi

Heure Température Précipitation Vent Pression Humidité
00:00 +16°C° 0.1 mm 1 m/s 737 mmHg 78%
01:00 +16°C° 0.1 mm 1 m/s 737 mmHg 79%
02:00 +15°C° 0.1 mm 0 m/s 737 mmHg 80%
03:00 +15°C° 0.1 mm 0 m/s 737 mmHg 82%
04:00 +15°C° 0.1 mm 0 m/s 737 mmHg 84%
05:00 +15°C° 0 mm 0 m/s 737 mmHg 85%
06:00 +15°C° 0 mm 0 m/s 737 mmHg 86%
07:00 +16°C° 0 mm 0 m/s 737 mmHg 87%
08:00 +16°C° 0.3 mm 0 m/s 737 mmHg 88%
09:00 +18°C° 0.3 mm 1 m/s 737 mmHg 90%
10:00 +18°C° 0.3 mm 1 m/s 737 mmHg 92%
11:00 +19°C° 0.6 mm 1 m/s 738 mmHg 88%
12:00 +19°C° 0.6 mm 2 m/s 738 mmHg 85%
13:00 +20°C° 0.6 mm 2 m/s 738 mmHg 81%
14:00 +20°C° 0.7 mm 2 m/s 738 mmHg 80%
15:00 +20°C° 0.7 mm 2 m/s 737 mmHg 80%
16:00 +20°C° 0.7 mm 2 m/s 737 mmHg 79%
17:00 +19°C° 0.2 mm 2 m/s 737 mmHg 82%
18:00 +18°C° 0.2 mm 2 m/s 737 mmHg 86%
19:00 +18°C° 0.2 mm 1 m/s 737 mmHg 89%
20:00 +16°C° 0 mm 1 m/s 737 mmHg 90%
21:00 +16°C° 0 mm 1 m/s 737 mmHg 90%
22:00 +15°C° 0 mm 1 m/s 738 mmHg 91%
23:00 +15°C° 0 mm 1 m/s 738 mmHg 91%

17 Juillet, Vendredi

Heure Température Précipitation Vent Pression Humidité
00:00 +14°C° 0 mm 1 m/s 738 mmHg 91%
01:00 +14°C° 0 mm 1 m/s 738 mmHg 91%
02:00 +14°C° 0 mm 1 m/s 737 mmHg 91%
03:00 +14°C° 0 mm 1 m/s 737 mmHg 91%
04:00 +13°C° 0 mm 1 m/s 737 mmHg 92%
05:00 +14°C° 0 mm 1 m/s 737 mmHg 89%
06:00 +15°C° 0 mm 1 m/s 738 mmHg 86%
07:00 +16°C° 0 mm 1 m/s 738 mmHg 84%
08:00 +19°C° 0.1 mm 1 m/s 738 mmHg 75%
09:00 +20°C° 0.1 mm 1 m/s 738 mmHg 67%
10:00 +20°C° 0.1 mm 2 m/s 738 mmHg 59%
11:00 +21°C° 0.3 mm 2 m/s 738 mmHg 59%
12:00 +21°C° 0.3 mm 2 m/s 738 mmHg 58%
13:00 +23°C° 0.3 mm 2 m/s 738 mmHg 57%
14:00 +21°C° 0.8 mm 2 m/s 738 mmHg 62%
15:00 +21°C° 0.8 mm 2 m/s 737 mmHg 67%
16:00 +20°C° 0.8 mm 2 m/s 737 mmHg 73%
17:00 +19°C° 0.5 mm 2 m/s 737 mmHg 77%
18:00 +19°C° 0.5 mm 1 m/s 737 mmHg 81%
19:00 +18°C° 0.5 mm 1 m/s 737 mmHg 85%
20:00 +16°C° 0.1 mm 1 m/s 737 mmHg 87%
21:00 +15°C° 0.1 mm 1 m/s 737 mmHg 89%
22:00 +14°C° 0.1 mm 1 m/s 738 mmHg 91%
23:00 +14°C° 0.3 mm 1 m/s 738 mmHg 93%

18 Juillet, Samedi

Heure Température Précipitation Vent Pression Humidité
00:00 +13°C° 0.3 mm 1 m/s 738 mmHg 95%
01:00 +13°C° 0.3 mm 1 m/s 738 mmHg 96%
02:00 +13°C° 0 mm 1 m/s 738 mmHg 97%
03:00 +12°C° 0 mm 1 m/s 738 mmHg 97%
04:00 +12°C° 0 mm 1 m/s 738 mmHg 97%
05:00 +13°C° 0 mm 2 m/s 738 mmHg 95%
06:00 +14°C° 0 mm 2 m/s 738 mmHg 92%
07:00 +15°C° 0 mm 2 m/s 738 mmHg 89%
08:00 +17°C° 0 mm 2 m/s 738 mmHg 81%
09:00 +18°C° 0 mm 3 m/s 738 mmHg 73%
10:00 +20°C° 0 mm 3 m/s 739 mmHg 65%
11:00 +21°C° 0.3 mm 3 m/s 738 mmHg 63%
12:00 +21°C° 0.3 mm 3 m/s 738 mmHg 62%
13:00 +22°C° 0.3 mm 3 m/s 738 mmHg 60%
14:00 +22°C° 0.1 mm 3 m/s 738 mmHg 59%
15:00 +22°C° 0.1 mm 3 m/s 738 mmHg 58%
16:00 +24°C° 0.1 mm 3 m/s 738 mmHg 58%
17:00 +21°C° 0.1 mm 3 m/s 738 mmHg 66%
18:00 +20°C° 0.1 mm 2 m/s 737 mmHg 74%
19:00 +18°C° 0.1 mm 2 m/s 737 mmHg 82%
20:00 +17°C° 0 mm 2 m/s 738 mmHg 86%
21:00 +15°C° 0 mm 2 m/s 738 mmHg 90%
22:00 +14°C° 0 mm 1 m/s 738 mmHg 94%
23:00 +14°C° 0 mm 1 m/s 738 mmHg 94%

19 Juillet, Dimanche

Heure Température Précipitation Vent Pression Humidité
00:00 +13°C° 0 mm 1 m/s 738 mmHg 94%
01:00 +13°C° 0 mm 1 m/s 738 mmHg 95%
02:00 +13°C° 0 mm 1 m/s 738 mmHg 95%
03:00 +13°C° 0 mm 1 m/s 738 mmHg 95%
04:00 +12°C° 0 mm 1 m/s 738 mmHg 95%
05:00 +14°C° 0 mm 1 m/s 738 mmHg 91%
06:00 +15°C° 0 mm 1 m/s 738 mmHg 87%
07:00 +18°C° 0 mm 1 m/s 738 mmHg 83%
08:00 +19°C° 0 mm 1 m/s 738 mmHg 80%
09:00 +19°C° 0 mm 2 m/s 738 mmHg 77%
10:00 +20°C° 0 mm 2 m/s 739 mmHg 75%
11:00 +20°C° 0.2 mm 2 m/s 738 mmHg 75%
12:00 +20°C° 0.2 mm 2 m/s 738 mmHg 75%
13:00 +21°C° 0.2 mm 2 m/s 738 mmHg 76%
14:00 +21°C° 0 mm 2 m/s 738 mmHg 73%
15:00 +23°C° 0 mm 2 m/s 737 mmHg 70%
16:00 +24°C° 0 mm 2 m/s 737 mmHg 67%
17:00 +23°C° 0 mm 1 m/s 737 mmHg 73%
18:00 +21°C° 0 mm 1 m/s 737 mmHg 79%
19:00 +20°C° 0 mm 1 m/s 737 mmHg 85%
20:00 +19°C° 0 mm 1 m/s 737 mmHg 88%
21:00 +19°C° 0 mm 1 m/s 737 mmHg 90%
22:00 +16°C° 0 mm 0 m/s 737 mmHg 93%
23:00 +15°C° 0 mm 0 m/s 737 mmHg 93%
Voir plus